User: anonymous   Login
Location: Unspecified
(0.0000°N, 0.0000°E)
Time: 06:13:46
(UTC+00:00)
Language:

Telecom 2D - Orbit

View from above orbital plane
View from above orbital plane
View from above satellite
View from above satellite

Ground track
Ground track

The orbit data is extracted from the following two-line orbital elements,

1 24209U 96044B   18203.62769644 -.00000171 +00000-0 +00000-0 0  9998
2 24209 009.3135 042.8766 0016042 306.9787 187.5495 00.98448917080137
Epoch (UTC): 22 July 2018 15:03:52
Eccentricity: 0.0016042
inclination: 9.3135°
perigee height: 36236 km
apogee height: 36373 km
right ascension of ascending node: 42.8766°
argument of perigee: 306.9787°
revolutions per day: 0.98448917
mean anomaly at epoch: 187.5495°
orbit number at epoch: 8013

The dashed part of the orbit path shows where the satellite is in the earth's shadow,  

DLR